Location: Grand Moustoir
(47.8355°N, 3.3120°W)
Time: 23:55:37
(UTC+00:00)

PSLV R/B - Pass Details

Date: 20 January 2020
Orbit: 503 x 581 km, 97.8° (Epoch: 23 February)

Event Time Altitude Azimuth Distance (km) Brightness Sun altitude
Rises 05:22:36 0° 14° (NNE) 2,697 7.5 -25.0°
Reaches altitude 10° 05:24:45 10° 17° (NNE) 1,788 6.6 -24.7°
Enters shadow 05:27:32 45° 29° (NNE) 726 4.5 -24.2°
